FW0824 Weather Reports


time (UTC)temp
F
wind
direction
speed
knots
gust
knots
rain 1hr
in
rain 24hr
in
rain mn
in
humidity
%
barometer
mb
20220925044207 57 30 0.0 2.6 0.00 0.00 0.00 84 1011.6
20220925043708 57 31 0.0 2.6 0.00 0.00 0.00 84 1011.5
20220925043208 57 77 0.0 1.7 0.00 0.00 0.00 84 1011.6
20220925042208 57 90 0.9 2.6 0.00 0.00 0.00 84 1011.6
20220925041208 57 42 0.9 2.6 0.00 0.01 0.00 84 1011.5
20220925040707 57 240 0.9 3.5 0.00 0.01 0.00 84 1011.6
20220925040209 57 37 0.9 3.5 0.00 0.01 0.00 83 1011.6
20220925035207 57 243 0.0 3.5 0.00 0.01 0.00 83 1011.7
20220925034207 57 38 0.0 4.3 0.00 0.01 0.00 83 1011.7
20220925033707 58 288 0.0 2.6 0.00 0.01 0.00 83 1011.7
20220925033209 58 355 0.0 2.6 0.00 0.02 0.00 83 1011.8
20220925032709 58 13 0.9 2.6 0.00 0.02 0.00 82 1011.6
20220925032204 58 5 0.9 3.5 0.00 0.02 0.00 82 1011.7
20220925031703 58 265 0.9 3.5 0.00 0.02 0.00 82 1011.6
20220925031202 58 351 0.9 2.6 0.00 0.02 0.00 82 1011.7
20220925025701 58 276 1.7 6.1 0.00 0.02 0.00 82 1011.6
20220925025200 58 5 0.9 6.1 0.00 0.02 0.00 83 1011.6
20220925024701 58 355 0.9 4.3 0.00 0.02 0.00 83 1011.7
20220925024201 58 355 0.9 7.0 0.00 0.02 0.00 83 1011.7
20220925023701 58 310 1.7 7.0 0.00 0.02 0.00 83 1011.6
20220925022201 58 10 1.7 4.3 0.00 0.02 0.00 83 1011.7
20220925021701 58 355 1.7 4.3 0.00 0.02 0.00 83 1011.7
20220925021201 58 5 1.7 6.1 0.00 0.02 0.00 83 1011.7
20220925020701 58 346 1.7 6.1 0.00 0.02 0.00 84 1011.6
20220925015201 58 234 1.7 7.0 0.00 0.02 0.00 84 1011.5
20220925012202 57 27 0.9 6.1 0.00 0.02 0.00 87 1011.2
20220925011702 57 26 1.7 6.1 0.00 0.02 0.00 87 1011.1
20220925011201 57 269 0.9 4.3 0.00 0.02 0.00 87 1011.0
20220925010701 57 5 0.9 4.3 0.00 0.02 0.00 88 1011.1
20220925010200 57 304 0.9 4.3 0.00 0.02 0.00 88 1011.1
20220925005701 57 5 0.9 4.3 0.00 0.02 0.00 88 1011.0
20220925005201 57 351 0.9 4.3 0.00 0.02 0.00 88 1011.0
20220925004701 57 15 0.9 4.3 0.00 0.02 0.00 88 1010.9
20220925004200 57 288 0.9 3.5 0.00 0.02 0.00 88 1010.9
20220925003700 57 258 0.9 3.5 0.00 0.02 0.00 88 1011.0
20220925002701 57 339 0.9 6.1 0.00 0.03 0.00 88 1010.9
20220925000701 57 294 0.9 4.3 0.00 0.03 0.00 88 1010.8
20220925000203 58 245 0.9 4.3 0.00 0.03 0.00 88 1010.6
20220924235701 58 14 0.9 4.3 0.00 0.03 0.03 87 1010.6
20220924235201 58 17 0.9 3.5 0.00 0.03 0.03 87 1010.5
20220924234201 58 0 0.0 4.3 0.00 0.03 0.03 86 1010.6
20220924233700 58 321 0.0 3.5 0.00 0.03 0.03 86 1010.5
20220924233202 58 316 0.0 3.5 0.00 0.03 0.03 86 1010.4
20220924232701 58 213 0.0 3.5 0.00 0.03 0.03 85 1010.4
20220924232201 59 5 0.0 2.6 0.00 0.03 0.03 85 1010.4
20220924231701 59 228 0.0 7.8 0.00 0.03 0.03 84 1010.4
20220924230201 59 345 0.9 7.0 0.00 0.03 0.03 82 1010.2
20220924225701 59 5 0.0 6.1 0.00 0.03 0.03 82 1010.2
20220924225200 60 335 0.0 6.1 0.00 0.03 0.03 82 1010.2
20220924224701 60 24 0.9 6.1 0.00 0.03 0.03 82 1010.2
20220924224201 60 54 0.0 7.8 0.00 0.03 0.03 82 1010.2
20220924222701 60 112 0.0 3.5 0.00 0.03 0.03 82 1009.9
20220924222200 60 168 0.0 4.3 0.00 0.03 0.03 82 1009.9
20220924220702 60 44 0.0 6.1 0.00 0.03 0.03 81 1009.9
20220924213200 60 207 1.7 10.4 0.00 0.03 0.03 79 1009.6
20220924212700 61 259 1.7 10.4 0.00 0.03 0.03 78 1009.6
20220924212200 62 242 1.7 9.6 0.00 0.04 0.03 78 1009.6
20220924211701 62 267 0.9 9.6 0.00 0.04 0.03 76 1009.6
20220924211201 62 235 0.9 10.4 0.00 0.04 0.03 75 1009.5
20220924210200 63 231 0.0 8.7 0.00 0.04 0.03 73 1009.3
20220924203200 65 5 0.9 9.6 0.00 0.05 0.03 72 1009.2
20220924202202 66 219 0.0 3.5 0.00 0.05 0.03 73 1009.0
20220924201700 66 347 0.0 2.6 0.00 0.05 0.03 73 1008.9
20220924201202 66 349 0.0 5.2 0.00 0.05 0.03 73 1008.8
20220924200201 66 221 0.0 1.7 0.00 0.05 0.03 72 1008.6
20220924195700 67 222 0.0 0.0 0.00 0.05 0.03 72 1008.6
20220924194201 67 222 0.0 0.0 0.00 0.05 0.03 72 1008.7
20220924193701 67 222 0.0 0.0 0.00 0.05 0.03 71 1008.7
20220924193200 67 221 0.0 1.7 0.00 0.05 0.03 72 1008.8
20220924192700 66 221 0.0 1.7 0.00 0.05 0.03 72 1008.8
20220924192200 66 238 0.0 0.0 0.00 0.05 0.03 72 1008.9
20220924191202 66 239 0.0 0.0 0.00 0.05 0.03 72 1008.9
20220924190702 65 239 0.0 0.0 0.00 0.05 0.03 72 1008.9
20220924190201 65 239 0.0 0.0 0.00 0.05 0.03 73 1008.9
20220924185700 65 239 0.0 0.0 0.00 0.05 0.03 73 1009.0
20220924185201 65 239 0.0 1.7 0.00 0.05 0.03 73 1009.0
20220924184202 65 240 0.0 0.0 0.00 0.05 0.03 73 1009.2
20220924183700 65 240 0.0 1.7 0.00 0.05 0.03 72 1009.2
20220924183201 65 240 0.0 2.6 0.00 0.05 0.03 72 1009.5
20220924182702 65 239 0.0 2.6 0.00 0.05 0.03 71 1009.5
20220924181702 65 230 0.0 4.3 0.00 0.05 0.03 71 1009.6
20220924181201 65 217 0.9 4.3 0.00 0.05 0.03 72 1009.6
20220924180201 66 180 0.0 3.5 0.00 0.05 0.03 72 1009.6
20220924175202 66 243 0.0 4.3 0.00 0.05 0.03 70 1009.5
20220924174201 66 262 0.9 5.2 0.00 0.05 0.03 72 1009.5
20220924173702 66 155 0.9 6.1 0.00 0.05 0.03 70 1009.6
20220924173202 66 216 0.0 6.1 0.00 0.05 0.03 70 1009.7
20220924172700 66 240 0.0 3.5 0.00 0.05 0.03 71 1009.7
20220924172201 66 286 0.9 5.2 0.00 0.05 0.03 73 1009.6
20220924171702 65 190 0.9 5.2 0.00 0.05 0.03 74 1009.8
20220924171201 65 150 0.9 6.1 0.00 0.05 0.03 74 1009.9
20220924170700 65 197 0.9 6.1 0.00 0.05 0.03 75 1010.1
20220924170202 64 207 0.9 6.1 0.00 0.05 0.03 77 1010.1
20220924165702 64 225 0.9 6.1 0.00 0.05 0.03 76 1010.3
20220924164156 63 276 0.9 8.7 0.00 0.06 0.03 79 1010.4
20220924163656 63 165 0.9 8.7 0.00 0.06 0.03 79 1010.4
20220924162656 62 209 0.0 4.3 0.00 0.06 0.03 81 1010.4
20220924162158 62 254 0.9 6.1 0.00 0.06 0.03 82 1010.5
20220924161658 62 234 1.7 7.8 0.00 0.06 0.03 82 1010.5
20220924160656 61 236 0.9 4.3 0.00 0.07 0.03 84 1010.4
20220924155652 60 182 0.9 6.1 0.00 0.08 0.03 87 1010.4
20220924155156 60 234 0.0 1.7 0.00 0.08 0.03 89 1010.5
20220924154153 59 219 0.0 0.0 0.00 0.09 0.03 89 1010.4
20220924153652 58 232 0.0 0.0 0.00 0.09 0.03 90 1010.3
20220924153152 58 221 0.0 0.0 0.00 0.09 0.03 90 1010.5
20220924150136 57 224 0.0 0.0 0.00 0.09 0.03 92 1010.5
20220924145638 57 208 0.0 0.0 0.00 0.10 0.03 92 1010.5
20220924145136 57 166 0.0 0.0 0.00 0.10 0.03 93 1010.6
20220924144636 56 146 0.0 0.0 0.00 0.10 0.03 93 1010.6
20220924144136 56 150 0.0 0.0 0.00 0.10 0.03 93 1010.6
20220924143136 56 185 0.0 0.0 0.00 0.10 0.03 93 1010.6
20220924142637 56 207 0.0 0.0 0.00 0.10 0.03 93 1010.5
20220924142134 56 200 0.0 0.0 0.00 0.10 0.03 93 1010.6
20220924140129 56 170 0.0 0.0 0.00 0.10 0.03 93 1010.5
20220924135628 56 170 0.0 0.0 0.00 0.10 0.03 93 1010.5
20220924133630 55 161 0.0 0.0 0.00 0.10 0.03 93 1010.6
20220924133129 55 158 0.0 0.0 0.00 0.10 0.03 93 1010.6
20220924132623 55 159 0.0 0.0 0.00 0.10 0.03 93 1010.7
20220924131104 55 159 0.0 0.0 0.00 0.10 0.03 93 1010.7
20220924125604 55 159 0.0 0.0 0.00 0.10 0.03 93 1010.7
20220924124605 55 159 0.0 0.0 0.00 0.10 0.03 93 1010.7
20220924123604 55 159 0.0 0.0 0.00 0.10 0.03 93 1010.6
20220924123102 55 159 0.0 0.0 0.00 0.10 0.03 93 1010.7
20220924121102 54 159 0.0 0.0 0.00 0.10 0.03 93 1010.7
20220924120102 54 159 0.0 0.0 0.00 0.10 0.03 93 1010.8
20220924115601 54 159 0.0 0.0 0.00 0.10 0.03 93 1010.8
20220924115101 54 159 0.0 0.0 0.00 0.10 0.03 93 1010.8
20220924113101 54 150 0.0 0.0 0.00 0.10 0.03 93 1010.8
20220924112601 54 150 0.0 0.0 0.00 0.10 0.03 93 1010.7
20220924111601 54 150 0.0 0.0 0.00 0.10 0.03 93 1010.8
20220924110101 54 148 0.0 0.0 0.00 0.10 0.03 93 1011.0
20220924105101 54 150 0.0 0.0 0.00 0.10 0.03 93 1011.0
20220924104602 54 150 0.0 0.0 0.00 0.10 0.03 93 1010.9
20220924103602 54 150 0.0 0.0 0.00 0.10 0.03 93 1010.8
20220924103107 54 157 0.0 0.0 0.00 0.10 0.03 93 1010.9
20220924102607 54 165 0.0 0.0 0.00 0.10 0.03 93 1010.9
20220924102105 54 166 0.0 0.0 0.00 0.10 0.03 93 1011.0
20220924101606 54 166 0.0 0.0 0.00 0.10 0.03 93 1010.9
20220924100548 54 166 0.0 0.0 0.00 0.10 0.03 93 1010.9
20220924095543 54 171 0.0 0.0 0.00 0.10 0.03 93 1010.9
20220924095038 54 171 0.0 0.0 0.00 0.10 0.03 93 1010.9
20220924093532 54 165 0.0 0.0 0.00 0.10 0.03 93 1010.8
20220924093032 54 157 0.0 0.0 0.00 0.10 0.03 93 1010.8
20220924092531 54 153 0.0 0.0 0.00 0.10 0.03 93 1010.9
20220924092032 54 178 0.0 0.0 0.00 0.10 0.03 93 1010.9
20220924091532 54 168 0.0 0.0 0.00 0.10 0.03 93 1010.9
20220924091034 54 176 0.0 0.0 0.00 0.10 0.03 93 1010.9
20220924090530 54 180 0.0 0.0 0.00 0.10 0.03 93 1010.9
20220924090038 54 178 0.0 0.0 0.00 0.10 0.03 93 1010.9
20220924085028 54 180 0.0 0.0 0.00 0.10 0.03 93 1011.0
20220924084530 54 189 0.0 0.0 0.00 0.10 0.03 93 1010.9
20220924084039 54 190 0.0 0.0 0.00 0.10 0.03 93 1010.9
20220924083028 54 191 0.0 0.0 0.00 0.10 0.03 93 1010.9
20220924082025 53 184 0.0 0.0 0.00 0.10 0.03 93 1011.0
20220924081516 53 177 0.0 0.0 0.00 0.10 0.03 93 1011.1
20220924081012 53 175 0.0 0.0 0.00 0.10 0.03 93 1011.2
20220924080513 53 157 0.0 0.0 0.00 0.10 0.03 93 1011.3
20220924080020 53 178 0.0 0.0 0.00 0.10 0.03 93 1011.3
20220924075511 53 165 0.0 0.0 0.00 0.10 0.03 93 1011.4
20220924074511 53 171 0.0 0.0 0.00 0.10 0.03 93 1011.4
20220924074010 53 170 0.0 0.0 0.00 0.10 0.03 93 1011.4
20220924073010 53 186 0.0 0.0 0.00 0.10 0.03 93 1011.5
20220924072509 53 208 0.0 0.0 0.00 0.10 0.03 93 1011.5
20220924071009 53 188 0.0 0.0 0.00 0.10 0.03 93 1011.7
20220924070510 53 165 0.0 0.0 0.00 0.10 0.03 93 1011.7
20220924070009 53 190 0.0 1.7 0.00 0.10 0.03 93 1011.8
20220924065510 53 186 0.9 5.2 0.00 0.10 0.03 93 1011.8
20220924065007 53 232 1.7 5.2 0.00 0.10 0.03 93 1011.8
20220924064507 53 176 0.9 4.3 0.00 0.10 0.03 93 1011.7
20220924063503 53 167 0.0 0.0 0.00 0.10 0.03 93 1011.8
20220924063003 53 190 0.9 5.2 0.00 0.10 0.03 93 1011.7
20220924062504 53 164 2.6 9.6 0.00 0.10 0.03 93 1011.7
20220924062004 53 189 2.6 9.6 0.00 0.10 0.03 93 1011.9
20220924061503 53 198 1.7 5.2 0.00 0.10 0.03 93 1011.9
20220924060004 53 212 0.0 0.0 0.00 0.10 0.03 93 1012.1
20220924055503 53 146 0.0 0.0 0.00 0.10 0.03 93 1012.1
20220924054501 53 150 0.0 0.0 0.00 0.10 0.03 93 1012.3
20220924054002 53 138 0.0 0.0 0.00 0.10 0.03 93 1012.4
20220924053002 53 219 0.0 0.0 0.00 0.10 0.03 93 1012.5
20220924052002 53 154 0.0 0.0 0.00 0.10 0.03 93 1012.7
20220924051002 53 186 0.0 0.0 0.01 0.10 0.03 93 1012.8
20220924050502 53 174 0.0 0.0 0.01 0.10 0.03 93 1012.8
20220924045501 53 158 0.0 0.0 0.01 0.10 0.03 92 1012.8
20220924044502 53 150 0.0 0.0 0.01 0.10 0.03 92 1012.9